Time,TemperatureF,DewpointF,PressureIn,WindDirection,WindDirectionDegrees,WindSpeedMPH,WindSpeedGustMPH,Humidity,HourlyPrecipIn,Conditions,Clouds,dailyrainin,SoftwareType,DateUTC
2013-01-26 00:00:00,55.4,48.6,30.19,WSW,248,1.1,2.0,78,0.00,,,0.00,WUHU216HW,2013-01-26 05:00:00,
2013-01-26 00:03:00,55.4,49.0,30.19,West,270,0.2,2.0,79,0.00,,,0.00,WUHU216HW,2013-01-26 05:03:00,
2013-01-26 00:07:00,55.6,48.8,30.19,West,270,0.4,1.1,78,0.00,,,0.00,WUHU216HW,2013-01-26 05:07:00,
2013-01-26 00:12:00,55.8,48.3,30.19,WNW,293,0.0,2.5,76,0.00,,,0.00,WUHU216HW,2013-01-26 05:12:00,
2013-01-26 00:18:00,55.8,48.3,30.19,WSW,248,0.4,2.5,76,0.00,,,0.00,WUHU216HW,2013-01-26 05:18:00,
2013-01-26 00:22:00,55.8,48.3,30.20,NW,315,0.2,1.1,76,0.00,,,0.00,WUHU216HW,2013-01-26 05:22:00,
2013-01-26 00:28:00,55.6,48.2,30.20,NW,315,0.0,0.7,76,0.00,,,0.00,WUHU216HW,2013-01-26 05:28:00,
2013-01-26 00:32:00,55.4,48.0,30.19,WNW,293,0.0,0.9,76,0.00,,,0.00,WUHU216HW,2013-01-26 05:32:00,
2013-01-26 00:37:00,55.1,47.6,30.19,WNW,293,0.0,0.9,76,0.00,,,0.00,WUHU216HW,2013-01-26 05:37:00,
2013-01-26 00:42:00,55.1,47.6,30.19,WNW,293,0.0,0.4,76,0.00,,,0.00,WUHU216HW,2013-01-26 05:42:00,
2013-01-26 00:47:00,54.9,47.4,30.19,SW,225,0.4,0.4,76,0.00,,,0.00,WUHU216HW,2013-01-26 05:47:00,
2013-01-26 00:52:00,54.7,47.3,30.19,WSW,248,0.0,0.4,76,0.00,,,0.00,WUHU216HW,2013-01-26 05:52:00,
2013-01-26 00:57:00,54.4,46.6,30.19,WSW,248,0.0,0.4,75,0.00,,,0.00,WUHU216HW,2013-01-26 05:57:00,
2013-01-26 01:02:00,54.4,46.6,30.20,WSW,248,0.0,0.0,75,0.00,,,0.00,WUHU216HW,2013-01-26 06:02:00,
2013-01-26 01:07:00,54.0,46.3,30.20,NW,315,0.0,0.0,75,0.00,,,0.00,WUHU216HW,2013-01-26 06:07:00,
2013-01-26 01:12:00,53.6,45.9,30.20,NW,315,0.0,0.0,75,0.00,,,0.00,WUHU216HW,2013-01-26 06:12:00,
2013-01-26 01:17:00,53.6,46.3,30.20,NW,315,0.0,0.0,76,0.00,,,0.00,WUHU216HW,2013-01-26 06:17:00,
2013-01-26 01:23:00,53.3,45.9,30.20,NW,315,0.0,0.0,76,0.00,,,0.00,WUHU216HW,2013-01-26 06:23:00,
2013-01-26 01:28:00,53.3,45.9,30.20,NW,315,0.0,0.0,76,0.00,,,0.00,WUHU216HW,2013-01-26 06:28:00,
2013-01-26 01:33:00,53.3,45.9,30.20,NW,315,0.0,0.0,76,0.00,,,0.00,WUHU216HW,2013-01-26 06:33:00,
2013-01-26 01:37:00,53.1,46.1,30.19,NW,315,0.0,0.0,77,0.00,,,0.00,WUHU216HW,2013-01-26 06:37:00,
2013-01-26 01:42:00,52.9,45.9,30.19,NW,315,0.0,0.0,77,0.00,,,0.00,WUHU216HW,2013-01-26 06:42:00,
2013-01-26 01:48:00,52.7,45.7,30.19,NW,315,0.0,0.0,77,0.00,,,0.00,WUHU216HW,2013-01-26 06:48:00,
2013-01-26 01:53:00,52.4,45.7,30.19,NW,315,0.0,0.0,78,0.00,,,0.00,WUHU216HW,2013-01-26 06:53:00,
2013-01-26 01:58:00,52.2,45.5,30.20,NW,315,0.0,0.0,78,0.00,,,0.00,WUHU216HW,2013-01-26 06:58:00,
2013-01-26 02:03:00,51.8,45.2,30.20,SE,135,0.0,0.0,78,0.00,,,0.00,WUHU216HW,2013-01-26 07:03:00,
2013-01-26 02:08:00,51.7,45.0,30.19,SE,135,0.0,0.0,78,0.00,,,0.00,WUHU216HW,2013-01-26 07:08:00,
2013-01-26 02:13:00,51.5,44.8,30.19,SE,135,0.0,0.0,78,0.00,,,0.00,WUHU216HW,2013-01-26 07:13:00,
2013-01-26 02:18:00,51.5,45.2,30.19,SE,135,0.0,0.0,79,0.00,,,0.00,WUHU216HW,2013-01-26 07:18:00,
2013-01-26 02:23:00,51.5,45.2,30.19,SE,135,0.0,0.2,79,0.00,,,0.00,WUHU216HW,2013-01-26 07:23:00,
2013-01-26 02:28:00,51.3,45.0,30.19,SE,135,0.0,0.2,79,0.00,,,0.00,WUHU216HW,2013-01-26 07:28:00,
2013-01-26 02:33:00,51.1,44.8,30.19,SE,135,0.0,0.0,79,0.00,,,0.00,WUHU216HW,2013-01-26 07:33:00,
2013-01-26 02:38:00,50.9,45.0,30.19,SE,135,0.0,0.0,80,0.00,,,0.00,WUHU216HW,2013-01-26 07:38:00,
2013-01-26 02:43:00,50.8,44.8,30.19,South,180,0.0,0.0,80,0.00,,,0.00,WUHU216HW,2013-01-26 07:43:00,
2013-01-26 02:48:00,50.8,44.8,30.19,South,180,0.4,0.4,80,0.00,,,0.00,WUHU216HW,2013-01-26 07:48:00,
2013-01-26 02:53:00,50.8,44.8,30.19,SW,225,0.2,1.1,80,0.00,,,0.00,WUHU216HW,2013-01-26 07:53:00,
2013-01-26 02:58:00,50.8,44.8,30.19,WSW,248,0.0,1.1,80,0.00,,,0.00,WUHU216HW,2013-01-26 07:58:00,
2013-01-26 03:03:00,50.6,44.6,30.19,ESE,113,0.0,0.4,80,0.00,,,0.00,WUHU216HW,2013-01-26 08:03:00,
2013-01-26 03:08:00,50.4,44.5,30.19,ESE,113,0.0,0.2,80,0.00,,,0.00,WUHU216HW,2013-01-26 08:08:00,
2013-01-26 03:13:00,50.4,44.5,30.18,ESE,113,0.0,0.0,80,0.00,,,0.00,WUHU216HW,2013-01-26 08:13:00,
2013-01-26 03:17:00,50.2,44.6,30.18,WSW,248,0.0,0.0,81,0.00,,,0.00,WUHU216HW,2013-01-26 08:17:00,
2013-01-26 03:22:00,50.2,44.6,30.18,West,270,0.0,0.2,81,0.00,,,0.00,WUHU216HW,2013-01-26 08:22:00,
2013-01-26 03:28:00,50.2,44.6,30.18,SE,135,0.0,0.2,81,0.00,,,0.00,WUHU216HW,2013-01-26 08:28:00,
2013-01-26 03:33:00,50.2,44.9,30.18,SE,135,0.0,0.2,82,0.00,,,0.00,WUHU216HW,2013-01-26 08:33:00,
2013-01-26 03:38:00,50.0,44.7,30.18,SE,135,0.0,0.0,82,0.00,,,0.00,WUHU216HW,2013-01-26 08:38:00,
2013-01-26 03:43:00,49.9,44.6,30.18,SE,135,0.0,0.0,82,0.00,,,0.00,WUHU216HW,2013-01-26 08:43:00,
2013-01-26 03:47:00,49.7,44.4,30.18,ESE,113,0.0,0.0,82,0.00,,,0.00,WUHU216HW,2013-01-26 08:47:00,
2013-01-26 03:52:00,49.7,44.4,30.18,ESE,113,0.0,0.0,82,0.00,,,0.00,WUHU216HW,2013-01-26 08:52:00,
2013-01-26 03:57:00,49.9,44.6,30.18,ESE,113,0.0,0.0,82,0.00,,,0.00,WUHU216HW,2013-01-26 08:57:00,
2013-01-26 04:02:00,49.9,44.6,30.18,WNW,293,0.0,0.4,82,0.00,,,0.00,WUHU216HW,2013-01-26 09:02:00,
2013-01-26 04:07:00,49.9,44.6,30.18,ESE,113,0.0,0.4,82,0.00,,,0.00,WUHU216HW,2013-01-26 09:07:00,
2013-01-26 04:12:00,50.0,44.7,30.17,SE,135,0.0,0.0,82,0.00,,,0.00,WUHU216HW,2013-01-26 09:12:00,
2013-01-26 04:17:00,50.0,44.7,30.17,SE,135,0.0,0.2,82,0.00,,,0.00,WUHU216HW,2013-01-26 09:17:00,
2013-01-26 04:22:00,50.0,44.7,30.17,SE,135,0.0,1.6,82,0.00,,,0.00,WUHU216HW,2013-01-26 09:22:00,
2013-01-26 04:27:00,50.0,44.7,30.17,SE,135,0.0,1.6,82,0.00,,,0.00,WUHU216HW,2013-01-26 09:27:00,
2013-01-26 04:32:00,50.0,44.7,30.18,SE,135,0.0,0.0,82,0.00,,,0.00,WUHU216HW,2013-01-26 09:32:00,
2013-01-26 04:37:00,50.0,44.7,30.17,NW,315,0.0,0.2,82,0.00,,,0.00,WUHU216HW,2013-01-26 09:37:00,
2013-01-26 04:42:00,50.0,45.0,30.17,WNW,293,0.0,0.4,83,0.00,,,0.00,WUHU216HW,2013-01-26 09:42:00,
2013-01-26 04:47:00,50.0,45.0,30.17,SE,135,0.0,0.4,83,0.00,,,0.00,WUHU216HW,2013-01-26 09:47:00,
2013-01-26 04:52:00,50.0,45.0,30.18,WNW,293,0.2,0.4,83,0.00,,,0.00,WUHU216HW,2013-01-26 09:52:00,
2013-01-26 04:57:00,50.0,45.0,30.18,WNW,293,0.0,0.4,83,0.00,,,0.00,WUHU216HW,2013-01-26 09:57:00,
2013-01-26 05:02:00,50.0,45.0,30.18,SE,135,0.0,0.2,83,0.00,,,0.00,WUHU216HW,2013-01-26 10:02:00,
2013-01-26 05:07:00,50.0,45.4,30.18,WNW,293,0.0,0.4,84,0.00,,,0.00,WUHU216HW,2013-01-26 10:07:00,
2013-01-26 05:12:00,50.0,45.4,30.18,WNW,293,0.0,0.4,84,0.00,,,0.00,WUHU216HW,2013-01-26 10:12:00,
2013-01-26 05:17:00,50.2,45.6,30.18,NNE,23,0.2,0.4,84,0.00,,,0.00,WUHU216HW,2013-01-26 10:17:00,
2013-01-26 05:22:00,50.8,46.4,30.18,ESE,113,0.0,1.8,85,0.00,,,0.00,WUHU216HW,2013-01-26 10:22:00,
2013-01-26 05:27:00,51.1,47.4,30.18,NW,315,0.0,1.8,87,0.00,,,0.00,WUHU216HW,2013-01-26 10:27:00,
2013-01-26 05:32:00,51.5,47.3,30.18,NNE,23,0.0,0.7,86,0.00,,,0.00,WUHU216HW,2013-01-26 10:32:00,
2013-01-26 05:37:00,51.5,47.3,30.18,NW,315,0.2,1.3,86,0.00,,,0.00,WUHU216HW,2013-01-26 10:37:00,
2013-01-26 05:42:00,51.7,47.9,30.18,West,270,0.0,2.9,87,0.00,,,0.00,WUHU216HW,2013-01-26 10:42:00,
2013-01-26 05:47:00,52.0,48.3,30.19,West,270,0.2,2.9,87,0.00,,,0.00,WUHU216HW,2013-01-26 10:47:00,
2013-01-26 05:52:00,51.8,48.1,30.19,NW,315,0.2,1.3,87,0.00,,,0.00,WUHU216HW,2013-01-26 10:52:00,
2013-01-26 05:57:00,52.0,48.3,30.18,WNW,293,0.2,1.8,87,0.00,,,0.00,WUHU216HW,2013-01-26 10:57:00,
2013-01-26 06:02:00,52.0,48.5,30.18,NNW,338,0.0,1.8,88,0.00,,,0.00,WUHU216HW,2013-01-26 11:02:00,
2013-01-26 06:07:00,52.2,48.4,30.19,WNW,293,0.9,1.8,87,0.00,,,0.00,WUHU216HW,2013-01-26 11:07:00,
2013-01-26 06:12:00,52.0,48.3,30.19,WNW,293,1.1,1.8,87,0.00,,,0.00,WUHU216HW,2013-01-26 11:12:00,
2013-01-26 06:17:00,52.2,48.4,30.19,WSW,248,0.4,1.8,87,0.00,,,0.00,WUHU216HW,2013-01-26 11:17:00,
2013-01-26 06:22:00,52.2,48.4,30.19,SSW,203,1.3,2.9,87,0.00,,,0.00,WUHU216HW,2013-01-26 11:22:00,
2013-01-26 06:27:00,52.6,49.1,30.19,NW,315,0.2,2.9,88,0.00,,,0.00,WUHU216HW,2013-01-26 11:27:00,
2013-01-26 06:32:00,52.6,49.1,30.19,West,270,0.7,2.7,88,0.00,,,0.00,WUHU216HW,2013-01-26 11:32:00,
2013-01-26 06:37:00,52.6,49.1,30.19,WNW,293,1.3,2.7,88,0.00,,,0.00,WUHU216HW,2013-01-26 11:37:00,
2013-01-26 06:42:00,52.7,49.2,30.19,West,270,0.0,2.2,88,0.00,,,0.00,WUHU216HW,2013-01-26 11:42:00,
2013-01-26 06:47:00,52.6,49.1,30.19,West,270,0.4,1.3,88,0.00,,,0.00,WUHU216HW,2013-01-26 11:47:00,
2013-01-26 06:52:00,52.2,48.4,30.20,West,270,0.0,0.4,87,0.00,,,0.00,WUHU216HW,2013-01-26 11:52:00,
2013-01-26 06:57:00,52.2,48.7,30.19,North,0,0.0,0.4,88,0.00,,,0.00,WUHU216HW,2013-01-26 11:57:00,
2013-01-26 07:02:00,52.0,48.5,30.20,NW,315,0.0,1.1,88,0.00,,,0.00,WUHU216HW,2013-01-26 12:02:00,
2013-01-26 07:07:00,52.2,48.7,30.20,NW,315,0.4,1.1,88,0.00,,,0.00,WUHU216HW,2013-01-26 12:07:00,
2013-01-26 07:12:00,52.2,48.7,30.20,West,270,0.0,0.9,88,0.00,,,0.00,WUHU216HW,2013-01-26 12:12:00,
2013-01-26 07:17:00,51.8,48.1,30.21,WNW,293,0.4,0.9,87,0.00,,,0.00,WUHU216HW,2013-01-26 12:17:00,
2013-01-26 07:22:00,51.7,47.9,30.20,WNW,293,0.0,0.4,87,0.00,,,0.00,WUHU216HW,2013-01-26 12:22:00,
2013-01-26 07:27:00,51.5,47.7,30.20,WNW,293,0.0,0.4,87,0.00,,,0.00,WUHU216HW,2013-01-26 12:27:00,
2013-01-26 07:32:00,51.3,47.5,30.20,WNW,293,0.0,0.4,87,0.00,,,0.00,WUHU216HW,2013-01-26 12:32:00,
2013-01-26 07:37:00,51.3,47.5,30.21,WNW,293,0.0,0.4,87,0.00,,,0.00,WUHU216HW,2013-01-26 12:37:00,
2013-01-26 07:42:00,51.5,47.7,30.21,WNW,293,0.0,0.4,87,0.00,,,0.00,WUHU216HW,2013-01-26 12:42:00,
2013-01-26 07:47:00,51.7,47.9,30.21,WNW,293,0.0,0.4,87,0.00,,,0.00,WUHU216HW,2013-01-26 12:47:00,
2013-01-26 07:52:00,52.0,48.3,30.21,WNW,293,0.0,0.0,87,0.00,,,0.00,WUHU216HW,2013-01-26 12:52:00,
2013-01-26 07:57:00,52.7,49.0,30.21,WNW,293,0.0,0.2,87,0.00,,,0.00,WUHU216HW,2013-01-26 12:57:00,
2013-01-26 08:02:00,53.6,49.9,30.21,WNW,293,0.0,0.2,87,0.00,,,0.00,WUHU216HW,2013-01-26 13:02:00,
2013-01-26 08:07:00,54.4,50.6,30.21,West,270,0.9,0.9,87,0.00,,,0.00,WUHU216HW,2013-01-26 13:07:00,
2013-01-26 08:12:00,54.7,50.9,30.21,WNW,293,0.2,2.0,87,0.00,,,0.00,WUHU216HW,2013-01-26 13:12:00,
2013-01-26 08:17:00,55.3,51.4,30.21,West,270,0.2,2.0,87,0.00,,,0.00,WUHU216HW,2013-01-26 13:17:00,
2013-01-26 08:22:00,55.6,51.5,30.21,West,270,1.1,3.4,86,0.00,,,0.00,WUHU216HW,2013-01-26 13:22:00,
2013-01-26 08:27:00,55.8,51.9,30.21,West,270,0.2,3.4,87,0.00,,,0.00,WUHU216HW,2013-01-26 13:27:00,
2013-01-26 08:32:00,56.2,52.3,30.22,SSW,203,0.2,2.5,87,0.00,,,0.00,WUHU216HW,2013-01-26 13:32:00,
2013-01-26 08:37:00,56.5,52.7,30.22,WSW,248,0.7,2.5,87,0.00,,,0.00,WUHU216HW,2013-01-26 13:37:00,
2013-01-26 08:42:00,56.7,52.8,30.22,West,270,0.2,4.0,87,0.00,,,0.00,WUHU216HW,2013-01-26 13:42:00,
2013-01-26 08:47:00,56.9,52.8,30.22,West,270,1.8,4.0,86,0.00,,,0.00,WUHU216HW,2013-01-26 13:47:00,
2013-01-26 08:52:00,57.2,53.1,30.22,ESE,113,1.6,2.5,86,0.00,,,0.00,WUHU216HW,2013-01-26 13:52:00,
2013-01-26 08:57:00,57.8,53.9,30.22,SW,225,2.2,4.0,87,0.00,,,0.00,WUHU216HW,2013-01-26 13:57:00,
2013-01-26 09:02:00,58.0,54.1,30.22,West,270,0.4,4.0,87,0.00,,,0.00,WUHU216HW,2013-01-26 14:02:00,
2013-01-26 09:07:00,58.5,54.6,30.22,West,270,1.6,4.5,87,0.00,,,0.00,WUHU216HW,2013-01-26 14:07:00,
2013-01-26 09:12:00,58.9,55.0,30.22,WSW,248,0.7,4.5,87,0.00,,,0.00,WUHU216HW,2013-01-26 14:12:00,
2013-01-26 09:17:00,59.2,55.1,30.22,NW,315,0.4,3.8,86,0.00,,,0.00,WUHU216HW,2013-01-26 14:17:00,
2013-01-26 09:22:00,59.8,55.3,30.22,NNW,338,3.1,3.4,85,0.00,,,0.00,WUHU216HW,2013-01-26 14:22:00,
2013-01-26 09:27:00,60.1,55.3,30.22,WNW,293,1.3,3.4,84,0.00,,,0.00,WUHU216HW,2013-01-26 14:27:00,
2013-01-26 09:32:00,60.7,55.8,30.22,WNW,293,1.8,4.7,84,0.00,,,0.00,WUHU216HW,2013-01-26 14:32:00,
2013-01-26 09:37:00,61.2,56.1,30.23,NW,315,2.2,6.5,83,0.00,,,0.00,WUHU216HW,2013-01-26 14:37:00,
2013-01-26 09:42:00,61.6,56.1,30.23,NNW,338,2.5,6.5,82,0.00,,,0.00,WUHU216HW,2013-01-26 14:42:00,
2013-01-26 09:47:00,62.1,56.2,30.23,SW,225,2.0,6.3,81,0.00,,,0.00,WUHU216HW,2013-01-26 14:47:00,
2013-01-26 09:52:00,62.5,56.5,30.23,SE,135,2.0,6.3,81,0.00,,,0.00,WUHU216HW,2013-01-26 14:52:00,
2013-01-26 09:57:00,62.8,56.2,30.23,NW,315,2.5,4.5,79,0.00,,,0.00,WUHU216HW,2013-01-26 14:57:00,
2013-01-26 10:02:00,63.2,56.5,30.23,NNW,338,2.5,5.4,79,0.00,,,0.00,WUHU216HW,2013-01-26 15:02:00,
2013-01-26 10:07:00,63.5,56.9,30.23,West,270,2.5,5.4,79,0.00,,,0.00,WUHU216HW,2013-01-26 15:07:00,
2013-01-26 10:12:00,63.7,56.3,30.23,West,270,1.1,5.8,77,0.00,,,0.00,WUHU216HW,2013-01-26 15:12:00,
2013-01-26 10:17:00,63.7,56.7,30.23,West,270,1.3,5.8,78,0.00,,,0.00,WUHU216HW,2013-01-26 15:17:00,
2013-01-26 10:22:00,64.1,56.7,30.23,WNW,293,4.7,4.7,77,0.00,,,0.00,WUHU216HW,2013-01-26 15:22:00,
2013-01-26 10:27:00,64.6,57.6,30.23,SE,135,1.3,4.7,78,0.00,,,0.00,WUHU216HW,2013-01-26 15:27:00,
2013-01-26 10:32:00,65.0,57.6,30.23,SW,225,0.4,5.1,77,0.00,,,0.00,WUHU216HW,2013-01-26 15:32:00,
2013-01-26 10:37:00,65.2,57.4,30.23,West,270,2.0,5.1,76,0.00,,,0.00,WUHU216HW,2013-01-26 15:37:00,
2013-01-26 10:42:00,65.5,57.3,30.23,West,270,3.4,5.4,75,0.00,,,0.00,WUHU216HW,2013-01-26 15:42:00,
2013-01-26 10:47:00,65.7,57.5,30.23,West,270,1.1,5.4,75,0.00,,,0.00,WUHU216HW,2013-01-26 15:47:00,
2013-01-26 10:52:00,66.1,57.5,30.23,WNW,293,1.1,5.4,74,0.00,,,0.00,WUHU216HW,2013-01-26 15:52:00,
2013-01-26 10:57:00,66.2,57.7,30.23,SSE,158,0.9,5.4,74,0.00,,,0.00,WUHU216HW,2013-01-26 15:57:00,
2013-01-26 11:02:00,66.8,58.2,30.23,South,180,0.4,4.3,74,0.00,,,0.00,WUHU216HW,2013-01-26 16:02:00,
2013-01-26 11:07:00,67.5,58.6,30.23,NW,315,0.4,2.9,73,0.00,,,0.00,WUHU216HW,2013-01-26 16:07:00,
2013-01-26 11:12:00,67.9,58.5,30.23,NW,315,2.7,3.4,72,0.00,,,0.00,WUHU216HW,2013-01-26 16:12:00,
2013-01-26 11:17:00,68.0,58.3,30.23,WNW,293,0.9,4.9,71,0.00,,,0.00,WUHU216HW,2013-01-26 16:17:00,
2013-01-26 11:22:00,68.6,58.4,30.23,NNW,338,2.5,4.9,70,0.00,,,0.00,WUHU216HW,2013-01-26 16:22:00,
2013-01-26 11:27:00,68.8,59.0,30.23,NW,315,0.9,5.4,71,0.00,,,0.00,WUHU216HW,2013-01-26 16:27:00,
2013-01-26 11:32:00,69.1,58.5,30.23,South,180,1.3,5.4,69,0.00,,,0.00,WUHU216HW,2013-01-26 16:32:00,
2013-01-26 11:37:00,69.8,59.6,30.22,WSW,248,3.6,4.5,70,0.00,,,0.00,WUHU216HW,2013-01-26 16:37:00,
2013-01-26 11:42:00,70.2,59.1,30.22,NE,45,1.6,3.6,68,0.00,,,0.00,WUHU216HW,2013-01-26 16:42:00,
2013-01-26 11:47:00,70.4,59.3,30.21,SSE,158,3.4,4.3,68,0.00,,,0.00,WUHU216HW,2013-01-26 16:47:00,
2013-01-26 11:52:00,70.9,60.2,30.22,West,270,1.8,4.7,69,0.00,,,0.00,WUHU216HW,2013-01-26 16:52:00,
2013-01-26 11:57:00,71.6,60.1,30.21,NNW,338,2.9,5.4,67,0.00,,,0.00,WUHU216HW,2013-01-26 16:57:00,
2013-01-26 12:02:00,72.0,59.6,30.21,WNW,293,0.7,5.4,65,0.00,,,0.00,WUHU216HW,2013-01-26 17:02:00,
2013-01-26 12:07:00,72.2,60.6,30.21,SW,225,4.0,4.0,67,0.00,,,0.00,WUHU216HW,2013-01-26 17:07:00,
2013-01-26 12:12:00,72.7,60.7,30.21,SE,135,2.5,4.7,66,0.00,,,0.00,WUHU216HW,2013-01-26 17:12:00,
2013-01-26 12:17:00,72.9,59.9,30.21,WSW,248,2.5,4.7,64,0.00,,,0.00,WUHU216HW,2013-01-26 17:17:00,
2013-01-26 12:22:00,73.1,60.1,30.20,WNW,293,1.1,5.4,64,0.00,,,0.00,WUHU216HW,2013-01-26 17:22:00,
2013-01-26 12:27:00,73.6,60.7,30.20,NW,315,2.7,5.4,64,0.00,,,0.00,WUHU216HW,2013-01-26 17:27:00,
2013-01-26 12:32:00,74.3,61.4,30.20,WSW,248,2.7,5.4,64,0.00,,,0.00,WUHU216HW,2013-01-26 17:32:00,
2013-01-26 12:37:00,74.3,60.5,30.20,WSW,248,4.5,8.1,62,0.00,,,0.00,WUHU216HW,2013-01-26 17:37:00,
2013-01-26 12:42:00,75.1,61.2,30.20,NNW,338,1.1,8.1,62,0.00,,,0.00,WUHU216HW,2013-01-26 17:42:00,
2013-01-26 12:47:00,74.9,60.6,30.19,South,180,1.1,4.7,61,0.00,,,0.00,WUHU216HW,2013-01-26 17:47:00,
2013-01-26 12:52:00,74.7,60.4,30.19,South,180,3.1,5.4,61,0.00,,,0.00,WUHU216HW,2013-01-26 17:52:00,
2013-01-26 12:57:00,75.1,61.2,30.18,WSW,248,2.7,5.8,62,0.00,,,0.00,WUHU216HW,2013-01-26 17:57:00,
2013-01-26 13:02:00,75.4,61.5,30.18,NW,315,0.4,5.8,62,0.00,,,0.00,WUHU216HW,2013-01-26 18:02:00,
2013-01-26 13:07:00,76.0,61.6,30.18,NW,315,1.1,4.9,61,0.00,,,0.00,WUHU216HW,2013-01-26 18:07:00,
2013-01-26 13:12:00,76.3,62.4,30.18,SE,135,1.3,5.6,62,0.00,,,0.00,WUHU216HW,2013-01-26 18:12:00,
2013-01-26 13:17:00,76.7,60.8,30.18,WSW,248,0.9,5.6,58,0.00,,,0.00,WUHU216HW,2013-01-26 18:17:00,
2013-01-26 13:22:00,76.5,61.1,30.18,WNW,293,1.8,3.8,59,0.00,,,0.00,WUHU216HW,2013-01-26 18:22:00,
2013-01-26 13:27:00,76.5,61.1,30.18,WNW,293,2.5,4.0,59,0.00,,,0.00,WUHU216HW,2013-01-26 18:27:00,
2013-01-26 13:32:00,76.1,61.3,30.17,North,0,1.3,6.3,60,0.00,,,0.00,WUHU216HW,2013-01-26 18:32:00,
2013-01-26 13:37:00,75.6,60.9,30.17,NW,315,2.5,6.3,60,0.00,,,0.00,WUHU216HW,2013-01-26 18:37:00,
2013-01-26 13:42:00,75.4,60.7,30.17,WSW,248,2.7,6.5,60,0.00,,,0.00,WUHU216HW,2013-01-26 18:42:00,
2013-01-26 13:47:00,75.2,60.5,30.17,NE,45,0.7,6.5,60,0.00,,,0.00,WUHU216HW,2013-01-26 18:47:00,
2013-01-26 13:52:00,74.9,60.6,30.17,WSW,248,2.5,4.0,61,0.00,,,0.00,WUHU216HW,2013-01-26 18:52:00,
2013-01-26 13:57:00,74.9,61.0,30.16,SSE,158,1.1,4.0,62,0.00,,,0.00,WUHU216HW,2013-01-26 18:57:00,
2013-01-26 14:02:00,74.7,60.4,30.17,NNW,338,2.7,4.0,61,0.00,,,0.00,WUHU216HW,2013-01-26 19:02:00,
2013-01-26 14:07:00,74.3,59.6,30.16,WSW,248,1.8,6.3,60,0.00,,,0.00,WUHU216HW,2013-01-26 19:07:00,
2013-01-26 14:12:00,74.2,59.9,30.16,NW,315,3.6,6.3,61,0.00,,,0.00,WUHU216HW,2013-01-26 19:12:00,
2013-01-26 14:17:00,74.0,60.1,30.16,NW,315,0.7,3.6,62,0.00,,,0.00,WUHU216HW,2013-01-26 19:17:00,
2013-01-26 14:22:00,74.2,60.3,30.16,WNW,293,0.7,5.1,62,0.00,,,0.00,WUHU216HW,2013-01-26 19:22:00,
2013-01-26 14:27:00,74.9,60.6,30.16,WNW,293,2.0,6.3,61,0.00,,,0.00,WUHU216HW,2013-01-26 19:27:00,
2013-01-26 14:32:00,75.2,60.9,30.16,ESE,113,1.8,6.3,61,0.00,,,0.00,WUHU216HW,2013-01-26 19:32:00,
2013-01-26 14:37:00,75.2,60.9,30.16,NW,315,1.8,4.3,61,0.00,,,0.00,WUHU216HW,2013-01-26 19:37:00,
2013-01-26 14:42:00,75.1,59.8,30.16,WNW,293,1.6,3.8,59,0.00,,,0.00,WUHU216HW,2013-01-26 19:42:00,
2013-01-26 14:47:00,75.1,59.8,30.16,WNW,293,1.6,2.7,59,0.00,,,0.00,WUHU216HW,2013-01-26 19:47:00,
2013-01-26 14:52:00,75.1,59.8,30.15,WNW,293,1.6,1.6,59,0.00,,,0.00,WUHU216HW,2013-01-26 19:52:00,
2013-01-26 14:57:00,75.1,59.8,30.15,WNW,293,1.6,1.6,59,0.00,,,0.00,WUHU216HW,2013-01-26 19:57:00,
2013-01-26 15:02:00,75.1,59.8,30.15,WNW,293,1.6,1.6,59,0.00,,,0.00,WUHU216HW,2013-01-26 20:02:00,